Location: Sewell
(39.7660°N, 75.1450°W)
Time: 20:47:54
(UTC-04:00)

ISS - Visible Passes

Search period start: 30 June 2016 00:00
Search period end: 10 July 2016 00:00
Orbit: 402 x 403 km, 51.6° (Epoch: 30 June)

Date Brightness Start Highest point End Pass type
(mag) Time Alt. Az. Time Alt. Az. Time Alt. Az.
06 Jul -0.6 04:47:29 10° SSE 04:48:46 12° SE 04:50:02 10° ESE visible
08 Jul -1.8 04:36:46 12° SSW 04:39:17 28° SE 04:42:09 10° ENE visible
09 Jul -1.0 03:46:06 14° SE 03:46:39 14° SE 03:48:32 10° E visible
